Regional Weather Roundup
Issued by NWS Cleveland, OH

Home | Current Version | Previous Version | Graphics & Text | Print | Product List | Glossary On
Versions: 1 2 3 4 5 6 7 8 9 10 11 12 13 14 15 16 17 18 19 20 21 22 23 24 25 26 27 28 29 30 31 32 33 34 35 36 37 38 39 40 41 42 43 44 45 46 47 48 49 50
000
ASUS41 KCLE 191812
RWRCLE
OHIO REGIONAL WEATHER ROUNDUP
NATIONAL WEATHER SERVICE WILMINGTON, OH
100 PM EST SUN FEB 19 2017

NOTE: "FAIR" INDICATES FEW OR NO CLOUDS BELOW 12,000 FEET WITH NO
SIGNIFICANT WEATHER AND/OR OBSTRUCTIONS TO VISIBILITY.

OHZ001>008-015>018-024>027-034-035-043-044-191900-
   NORTHWEST OHIO

CITY           SKY/WX    TMP DP  RH WIND       PRES   REMARKS
DEFIANCE       FAIR      57  39  51 SW10      30.04F
FINDLAY        FAIR      60  42  51 W14       30.03F
TOLEDO EXPRESS FAIR      60  35  39 W10       30.01F
TOLEDO EXEC    FAIR      61  36  39 W9        30.02F
LIMA           FAIR      58  44  60 SW12      30.04F
$$

OHZ009>014-019>023-028>033-038-089-191900-
   NORTHEAST OHIO

CITY           SKY/WX    TMP DP  RH WIND       PRES   REMARKS
CLE-HOPKINS    FAIR      62  33  33 W15       30.02F
CLE-LAKEFRONT  FAIR      46  36  68 W13       30.01S
CUY CO. ARPT   SUNNY     54  39  58 NW14G25   30.02R
LORAIN-ELYRIA  FAIR      59  37  44 W13       30.01F
ASHTABULA      FAIR      55  40  56 W10       29.99S
AKRON-CANTON   FAIR      61  40  45 W13       30.00S
WOOSTER        FAIR      60  37  42 NW17      30.01F
MANSFIELD      FAIR      58  42  55 W12       30.03S
YOUNGSTOWN     FAIR      58  38  47 W12       29.99S
$$

OHZ042-051>053-060>062-070>072-077>081-191900-
  SOUTHWEST OHIO

CITY           SKY/WX    TMP DP  RH WIND       PRES   REMARKS
CINC-COVINGTON CLOUDY    52  46  80 SW3       30.10F
CINC-LUNKEN    CLOUDY    53  47  79 VRB3      30.11F
HAMILTON       CLOUDY    52  47  83 VRB5      30.11F
DAYTON         PTSUNNY   52  44  74 W8        30.08F HAZE
WRIGHT-PAT AFB CLOUDY    51  48  90 S8        30.08F FOG
DAYTON GENERAL CLOUDY    48  45  89 SW7       30.08F FOG
WILMINGTON     CLOUDY    48  46  93 W7        30.09F FOG
$$

OHZ036-037-039>041-045>050-054>059-063>069-073>076-082>088-191900-
  CENTRAL AND SOUTHEAST OHIO

CITY           SKY/WX    TMP DP  RH WIND       PRES   REMARKS
COLUMBUS       PTSUNNY   52  44  74 SW13      30.07F
OSU AIRPORT    PTSUNNY   55  46  71 W9        30.06F
BOLTON FIELD   CLOUDY    48  45  87 W9        30.09S FOG
RICKENBACK AFB CLOUDY    47  45  91 W9        30.08F
NEWARK         FAIR      52  44  74 W8        30.06F
MARION         FAIR      59  40  49 W9        30.04F
LANCASTER      CLOUDY    50  45  83 SW10      30.09S HAZE
ZANESVILLE     CLOUDY    53  44  71 W10       30.06S
NEW PHILLY     FAIR      60  43  53 VRB7      30.02F
$$




USA.gov is the U.S. government's official web portal to all federal, state and local government web resources and services.